Location: Naalehu
(19.0640°N, 155.5860°W)
Time: 20:53:52
(UTC-10:00)

ISS - Visible Passes

Search period start: 19 April 2019 00:00
Search period end: 29 April 2019 00:00
Orbit: 408 x 410 km, 51.6° (Epoch: 20 April)

Date Brightness Start Highest point End Pass type
(mag) Time Alt. Az. Time Alt. Az. Time Alt. Az.
21 Apr -0.9 05:16:16 10° SSE 05:17:47 13° SE 05:19:17 10° E visible
23 Apr -3.0 05:09:23 10° SSW 05:12:34 48° SE 05:15:45 10° NE visible
24 Apr -1.6 04:21:18 19° SE 04:21:52 19° SE 04:24:19 10° ENE visible
25 Apr -3.0 05:05:51 22° WSW 05:07:25 36° NW 05:10:30 10° NNE visible
26 Apr -2.8 04:17:30 45° NE 04:17:30 45° NE 04:19:53 10° NE visible
27 Apr -1.4 05:01:47 11° NW 05:02:24 11° NW 05:03:31 10° NNW visible
28 Apr -1.3 04:13:11 16° N 04:13:11 16° N 04:14:09 10° N visible
